| time (UTC) | temp F | wind direction | speed knots | gust knots | rain 1hr in | rain 24hr in | rain mn in | humidity % | barometer mb |
| 20260502205159 | 59 | 22 | 0.0 | 3.5 | 0.00 | 0.00 | 0.00 | 99 | 1013.0 |
| 20260502203658 | 59 | 45 | 0.0 | 3.5 | 0.00 | 0.00 | 0.00 | 99 | 1013.0 |
| 20260502195157 | 59 | 22 | 0.0 | 4.3 | 0.00 | 0.00 | 0.00 | 99 | 1013.0 |
| 20260502193657 | 59 | 45 | 1.7 | 4.3 | 0.00 | 0.00 | 0.00 | 99 | 1013.0 |
| 20260502185158 | 59 | 45 | 1.7 | 3.5 | 0.00 | 0.00 | 0.00 | 99 | 1013.0 |
| 20260502183657 | 59 | 45 | 1.7 | 3.5 | 0.00 | 0.00 | 0.00 | 99 | 1013.0 |
| 20260502163657 | 55 | 45 | 0.0 | 0.0 | 0.00 | 0.00 | 0.00 | 99 | 1012.0 |
| 20260502123659 | 63 | 45 | 0.0 | 0.0 | 0.00 | 0.00 | 0.00 | 73 | 1011.0 |
| 20260502115158 | 63 | 90 | 0.0 | 1.7 | 0.00 | 0.00 | 0.00 | 69 | 1010.0 |
| 20260502113657 | 63 | 67 | 0.0 | 1.7 | 0.00 | 0.00 | 0.00 | 72 | 1010.0 |
| 20260502105158 | 66 | 45 | 0.0 | 4.3 | 0.00 | 0.00 | 0.00 | 59 | 1009.0 |
| 20260502103657 | 66 | 157 | 0.0 | 4.3 | 0.00 | 0.00 | 0.00 | 54 | 1009.0 |
| 20260502065159 | 81 | 270 | 5.2 | 12.2 | 0.00 | 0.00 | 0.00 | 31 | 1006.0 |
| 20260502063658 | 82 | 45 | 3.5 | 12.2 | 0.00 | 0.00 | 0.00 | 32 | 1006.0 |
| 20260502055158 | 82 | 292 | 5.2 | 13.9 | 0.00 | 0.00 | 0.00 | 27 | 1005.0 |
| 20260502053658 | 81 | 270 | 3.5 | 13.9 | 0.00 | 0.00 | 0.00 | 28 | 1005.0 |
| 20260502045159 | 81 | 270 | 8.7 | 12.2 | 0.00 | 0.00 | 0.00 | 28 | 1005.0 |
| 20260502043658 | 81 | 270 | 5.2 | 12.2 | 0.00 | 0.01 | 0.00 | 30 | 1005.0 |
| 20260502035159 | 81 | 315 | 12.2 | 15.6 | 0.00 | 0.03 | 0.00 | 30 | 1004.0 |
| 20260502033658 | 79 | 112 | 7.8 | 15.6 | 0.00 | 0.06 | 0.00 | 30 | 1004.0 |
| 20260502025157 | 79 | 292 | 8.7 | 12.2 | 0.00 | 0.18 | 0.00 | 38 | 1003.0 |
| 20260502023657 | 79 | 270 | 5.2 | 11.3 | 0.00 | 0.19 | 0.00 | 45 | 1003.0 |
| 20260502015158 | 77 | 315 | 5.2 | 12.2 | 0.00 | 0.25 | 0.00 | 54 | 1003.0 |
| 20260502013658 | 75 | 270 | 5.2 | 12.2 | 0.00 | 0.28 | 0.00 | 52 | 1003.0 |
| 20260502005158 | 72 | 315 | 5.2 | 12.2 | 0.00 | 0.56 | 0.00 | 48 | 1003.0 |
| 20260502003658 | 72 | 270 | 8.7 | 12.2 | 0.00 | 0.64 | 0.00 | 53 | 1003.0 |
| 20260501235158 | 70 | 337 | 8.7 | 10.4 | 0.00 | 0.88 | 0.00 | 51 | 1002.0 |
| 20260501233658 | 68 | 315 | 5.2 | 8.7 | 0.00 | 0.92 | 0.00 | 54 | 1002.0 |
| 20260501225159 | 64 | 225 | 1.7 | 5.2 | 0.00 | 1.07 | 0.00 | 71 | 1001.0 |
| 20260501223658 | 64 | 270 | 4.3 | 5.2 | 0.00 | 1.10 | 0.00 | 75 | 1001.0 |
| 20260501215157 | 61 | 225 | 0.0 | 3.5 | 0.00 | 1.19 | 0.00 | 89 | 1000.0 |
| 20260501213657 | 59 | 270 | 1.7 | 4.3 | 0.00 | 1.20 | 0.00 | 90 | 1000.0 |